Hourly Data Report for October 31, 2016

All times are specified in Local Standard Time (LST). Add 1 hour to adjust for Daylight Saving Time where and when it is observed.

PETAWAWA AWOS 2
ONTARIO

45°57'00.000" N
77°19'00.000" W
130.10 m
6106396
71625
YWA

Download Data

Hourly Data (October 2016)
Hourly Data Report for October 31, 2016
Temp Definition
°C
Dew Point Temp Definition
°C
Rel Hum Definition
%
Wind Dir Definition
10's deg

Wind Spd Definition
km/h
Visibility Definition
km
Stn Press Definition
kPa
Hmdx Definition


Wind Chill Definition


Weather Definition


TIME
00:00 2.0 0.7 91 28 7 14.5 100.56     LegendNANA
01:00 1.9 0.8 92 28 9 14.5 100.59     LegendNANA
02:00 1.4 -0.5 87 30 9 14.5 100.63     LegendNANA
03:00 1.2 -1.9 80 30 7 14.5 100.68     LegendNANA
04:00 2.0 -4.0 64 34 13 14.5 100.71     LegendNANA
05:00 1.8 -3.8 66 1 15 14.5 100.75     LegendNANA
06:00 1.3 -4.1 67 34 13 14.5 100.84     LegendNANA
07:00 1.4 -3.8 68 36 19 14.5 100.87     LegendNANA
08:00 1.1 -3.5 71 2 9 14.5 100.92     LegendNANA
09:00 1.0 -4.5 67 36 7 14.5 101.04     LegendNANA
10:00 1.3 -4.1 67 33 7 14.5 101.04     LegendNANA
11:00 1.8 -3.2 69 7 6 14.5 100.99     LegendNANA
12:00 1.6 -3.7 68 5 6 14.5 101.01     LegendNANA
13:00 2.1 -3.6 66 29 7 14.5 101.00     Snow
14:00 2.2 -3.7 65 31 4 14.5 100.97     LegendNANA
15:00 2.1 -3.9 64   0 14.5 100.93     LegendNANA
16:00 1.9 -4.1 64 13 6 14.5 100.94     LegendNANA
17:00 1.7 -3.2 70 21 4 14.5 100.96     LegendNANA
18:00 0.9 -3.8 71   0 14.5 101.01     LegendNANA
19:00 -0.5 -3.6 80   0 14.5 100.93     LegendNANA
20:00 -0.1 -3.6 77 17 9 14.5 100.89   -3 LegendNANA
21:00 -1.3 -3.7 84 18 7 14.5 100.88   -4 LegendNANA
22:00 -1.1 -3.7 82 16 7 14.5 100.86   -4 LegendNANA
23:00 -0.8 -3.0 85 16 9 14.5 100.84   -4 LegendNANA

Notes on Data Quality.

Legend

  • E = Estimated
  • M = Missing
  • NA = Not Available
  • ‡ = Partner data that is not subject to review by the National Climate Archives
Date modified: